Find Starlink 33613

NORAD ID: 63286 Int'l Des: 2025-053 Owner: SPXS Country: US Constellation: starlink operational
LEOCIRCULAR

当前视图

正在加载3D地球...

About Starlink 33613

Starlink 33613 (NORAD 63286) is a starlink constellation satellite (v2 mini) launched Mar 15, 2025 by SPXS of US. It operates in LEO, CIRCULAR orbit with a mass of 575.00 kg.

关于 Starlink 33613

正在加载描述...

即将过境

Passes for default location (London). Set your location on the main map for personalized predictions.

高度历史

Loading altitude history...

两行轨道根数

1 63286U 25053X 26195.42281488 .00007664 00000-0 28778-3 0 9998
2 63286 43.0006 246.2332 0001568 273.2698 86.7975 15.27574560 75577
Epoch: Jul 14, 2026 • Age: 13 hours

当前状态

高度 483.2 km
远地点 / 近地点 N/A
速度 7.63 km/s
星下点 22.97°N, 5.49°W
发射日期 Mar 15, 2025
运行时间 1.3 years
类型 internet

技术详情

分类 Payload
质量 575.00 kg
干质量 530.00 kg
总质量 575.00 kg
长度 0.30 m
直径 4.10 m
跨度 29.00 m
形状 Box + pan
制造商 SPXS
平台类型 Starlink V2MO
阶段状态 In Orbit
所有者/国家 SPXS/US

Most Searched